Location: Newark
(48.3453°N, 0.5589°E)
Time: 09:33:52
(UTC+00:00)

A-11 Canister half - Pass Details

Date: 11 December 2019
Orbit: 1516 x 1683 km, 47.2° (Epoch: 20 January)

Event Time Altitude Azimuth Distance (km) Brightness Sun altitude
Rises 11:41:08 0° 224° (SW) 4,725 12.2 18.6°
Reaches altitude 10° 11:44:15 10° 220° (SW) 3,764 11.9 18.6°
Maximum altitude 11:53:24 52° 147° (SSE) 1,941 10.5 18.7°
Drops below altitude 10° 12:02:52 10° 76° (ENE) 3,901 11.0 18.6°
Sets 12:06:09 0° 71° (ENE) 4,907 11.4 18.6°
